www.pogodaiklimat.ru

Погода и климат >> Архив погоды >> Ирак >> Nasiriya


ПОГОДА в Nasiriya

  • Прогноз погоды в Nasiriya
  • Монитор погоды в Nasiriya
  • Климат города

АРХИВ ПОГОДЫ в Nasiriya

Время (UTC), дата Ветер
(напр.,м/с)
 
Видим.   Явления Облачность Т
(С)
Тd
(С)
f
(%)
Тe
(С)
Тes
(С)
Комфортность P
(гПа)
Po
(гПа)
Тmin
(С)
Tmax
(С)
R
(мм)
R24
(мм)
S
(см)
12 12.07 СЗ 8 4000 м пыльный позёмок ясно +47.4 +6.7 9 +45 +47 опасность
перегрева
995.9 996.0
15 12.07 СЗ 8 2000 м пыльный позёмок ясно +44.4 +7.3 11 +42 +42 опасность
перегрева
995.4 995.0
18 12.07 СЗ 4 4000 м пыль ясно +39.8 +7.8 14 +37 +37 очень
жарко
996.9 997.0 +47.6
21 12.07 З 5 10 км ясно +36.2 +7.3 17 +34 +34 очень
жарко
996.6 997.0
00 13.07 З 2 10 км ясно +33.0 +7.8 21 +31 +31 жарко 995.9 996.0
03 13.07 СЗ 3 10 км ясно +31.0 +7.7 23 +30 +31 жарко 996.4 996.0
06 13.07 СЗ 4 8000 м пыль ясно +38.4 +9.3 17 +37 +45 очень
жарко
997.1 997.0 +30.0
09 13.07 СЗ 6 8000 м пыль ясно +44.6 +9.1 12 +43 +51 опасность
перегрева
997.0 997.0
12 13.07 СЗ 5 10 км пыль ясно +45.8 +6.4 10 +43 +50 опасность
перегрева
996.0 996.0
15 13.07 СЗ 3 8000 м пыль ясно +44.4 +6.6 10 +42 +42 опасность
перегрева
995.8 996.0
18 13.07 СЗ 2 8000 м пыль ясно +38.8 +7.6 15 +37 +37 очень
жарко
997.3 997.0 +46.4
21 13.07 С 2 10 км ясно +35.4 +10.0 21 +34 +34 очень
жарко
996.9 997.0
06 14.07 З 3 10 км ясно +38.6 +8.4 16 +37 +47 очень
жарко
998.2 998.0 +28.0
09 14.07 З 3 10 км ясно +45.4 +8.3 11 +43 +61 опасность
перегрева
997.6 998.0
21 15.07 СЗ 2 10 км ясно +36.2 +10.3 21 +35 +35 очень
жарко
996.8 997.0
12 16.07 СЗ 4 10 км 4/4 960 м
[Sc]
+45.0 +10.0 13 +44 +48 опасность
перегрева
995.9 996.0
15 16.07 СЗ 3 10 км 3/3 960 м
[Sc]
+43.2 +8.0 12 +41 +41 опасность
перегрева
996.5 997.0
18 16.07 З 2 10 км ясно +38.6 +9.6 17 +37 +37 очень
жарко
998.0 998.0 +46.0
09 17.07 СЗ 5 3000 м пыль ясно +42.4 +5.3 11 +40 +51 опасность
солнечного
удара
997.5 998.0
12 17.07 СЗ 9 1500 м пыльный позёмок ясно +42.0 +7.3 12 +39 +41 очень
жарко
996.5 997.0
15 17.07 З 4 5000 м пыль ясно +41.2 +7.5 13 +39 +39 очень
жарко
996.3 996.0
18 17.07 СЗ 3 8000 м пыль ясно +37.0 +6.4 15 +34 +34 очень
жарко
997.0 997.0 +42.6
21 17.07 ЮЗ 2 10 км ясно +34.6 +7.9 19 +33 +33 жарко 997.9 998.0
00 18.07 З 4 10 км ясно +32.2 +6.3 20 +30 +30 жарко 996.7 997.0
06 18.07 З 4 8000 м пыль ясно +36.2 998.5 999.0 +30.0
09 18.07 З 5 4000 м пыль ясно +41.8 +5.3 11 +39 +50 очень
жарко
997.6 998.0
12 18.07 СЗ 3 4000 м пыль ясно +44.0 +7.0 11 +42 +52 опасность
перегрева
996.3 996.0
15 18.07 З 4 8000 м пыль ясно +42.6 +6.6 11 +40 +40 очень
жарко
995.9 996.0
18 18.07 З 2 8000 м пыль ясно +38.6 +10.2 18 +37 +37 очень
жарко
997.1 997.0 +44.5
21 18.07 ЮЗ 1 8000 м пыль ясно +34.2 +12.1 26 +34 +34 очень
жарко
997.1 997.0
00 19.07 З 2 10 км ясно +30.2 +7.4 24 +29 +29 жарко 997.2 997.0
03 19.07 З 3 10 км ясно +31.0 +8.3 24 +30 +31 жарко 998.4 998.0

 

Местоположение метеостанции Nasiriya (Ирак): широта 31.08 долгота 46.23 высота над уровнем моря 3 м.

В архиве по умолчанию представлена погода в Nasiriya за последнюю неделю. Архивные данные за месяц целиком и за предыдущие месяцы, начиная с января 2011 года, Вы можете получить, выбрав интересующий диапазон дат из раскрывающегося списка и нажав кнопку "Ввод!".


*Определитесь, кто Вы:
робот инопланетянин человек

Внимание! Время в таблицах - всемирное. Для получения местного времени необходимо прибавить поправку, которая в Nasiriya равна 3 ч.

Смотрите также архив погоды в соседних городах и на ближайших метеорологических станциях:

Погода в Rifai (Ирак) (72 км)
Погода в Samawah (Ирак) (95 км)
Погода в Kut-Al-Hai (Ирак) (122 км)
Погода в Amarah (Ирак) (124 км)
Погода в Diwaniya (Ирак) (155 км)
Погода в Basrah (Ирак) (159 км)
Погода в Basrah Airport (Ирак) (161 км)
Погода в Ali Al-Gharbi (Ирак) (161 км)
Погода в Ubaydah Bin Al Jarrah (Ирак) (163 км)
Погода в Mitribah (Кувейт) (178 км)

Пояснения к столбцам:

Ветер - указаны скорость ветра в м/с - средняя за 10 мин, порывы в срок и между сроками (в фигурных скобках) и направление, откуда дует ветер: С - северный, СВ - северо-восточный, В - восточный, ЮВ - юго-восточный, Ю - южный, ЮЗ - юго-западный, З - западный, СЗ - северо-западный.
Видимость - горизонтальная дальность видимости в метрах или километрах. При видимости от 1 до 10 км при отсутствии осадков обычно наблюдается дымка, при ухудшении видимости до 1 км и менее - туман. В сухую погоду видимость может ухудшаться дымом, пылью или мглою.
Явления - указаны атмосферные явления, наблюдавшиеся в срок или в последний час перед сроком; фигурными скобками обозначены явления, наблюдавшиеся между сроками (за 1-3 часа до срока); квадратными скобками обозначены град или гололедные отложения с указанием их диаметра в мм.
Облачность - указаны через наклонную черту общая и нижняя облачность в баллах и высота нижней границы облаков в метрах; квадратными скобками обозначены формы облаков: Ci - перистые, Cs - перисто-слоистые, Cc - перисто-кучевые, Ac - высококучевые, As - высокослоистые, Sc - слоисто-кучевые, Ns - слоисто-дождевые, Cu - кучевые, Cb - кучево-дождевые. Подробнее классификацию облаков см. в Атласе облаков (PDF).
T - Температура воздуха - температура, измеренная на высоте 2 м над землей.
Td - Температура точки росы - температура, при понижении до которой содержащийся в воздухе водяной пар достигнет насыщения.
f - Относительная влажность воздуха - влажноcть воздуха, измеренная на высоте 2 м над землей.
Te - Эффективная температура - температура, которую ощущает одетый по сезону человек в тени. Характеристика душности погоды. При расчете учитывается влияние влажности воздуха и скорости ветра на теплоощущения человека.
Tes - Эффективная температура на солнце - температура, которую ощущает человек, с поправкой на солнечный нагрев. Характеристика знойности погоды. Зависит от высоты солнца над горизонтом, облачности и скорости ветра. Ночью, в пасмурную погоду, а также при ветре 12 м/с и более поправка равна нулю.
P - Атмосферное давление - приведенное к уровню моря атмосферное давление.
Po - Атмосферное давление - измеренное на уровне метеостанции атмосферное давление.
Tmin - Минимальная температура - минимум температуры воздуха на высоте 2 м над землей.
Tmax - Максимальная температура - максимум температуры воздуха на высоте 2 м над землей.
R - Количество осадков - Количество выпавших осадков за период времени, мм. При наведении курсора мыши на число - период времени, за который выпало указанное количество осадков.
R24 - Количество осадков - Количество выпавших осадков за 24 часа, мм.
S - Снежный покров - Высота снежного покрова, см. При наведении курсора мыши на число - состояние снежного покрова и степень покрытия местности в баллах.